When you browse on this site, cookies collect data to enhance your experience and personalize the content and advertising you see.
Visit our Privacy Policy to learn more. By continuing to use the site, you agree to this use of cookies and data.
  • In Hungary
  • List of Countries
  • For 7 days
  • Water Temperature
  • Satellite Maps
  • Weather Map
  • News
  • Weather Widgets
  • user-avatar
    Login

    Hourly Weather Morzyczyn

    Today, 24 January, Thursday

    Time Temperature Precipitation Wind Pressure Humidity
    00:00 -8°C° 0 mm 3 mps 756 mmHg 75%
    01:00 -7°C° 0 mm 2 mps 756 mmHg 77%
    02:00 -7°C° 0 mm 2 mps 757 mmHg 78%
    03:00 -7°C° 0 mm 2 mps 757 mmHg 79%
    04:00 -7°C° 0 mm 2 mps 757 mmHg 80%
    05:00 -7°C° 0 mm 2 mps 757 mmHg 81%
    06:00 -7°C° 0 mm 2 mps 757 mmHg 81%
    07:00 -8°C° 0 mm 2 mps 758 mmHg 82%
    08:00 -8°C° 0 mm 3 mps 758 mmHg 79%
    09:00 -8°C° 0 mm 3 mps 758 mmHg 76%
    10:00 -8°C° 0 mm 4 mps 758 mmHg 73%
    11:00 -8°C° 0 mm 4 mps 758 mmHg 69%
    12:00 -6°C° 0 mm 3 mps 758 mmHg 66%
    13:00 -5°C° 0 mm 3 mps 758 mmHg 63%
    14:00 -5°C° 0 mm 3 mps 758 mmHg 64%
    15:00 -6°C° 0 mm 3 mps 758 mmHg 66%
    16:00 -5°C° 0 mm 2 mps 759 mmHg 67%
    17:00 -5°C° 0 mm 2 mps 759 mmHg 70%
    18:00 -6°C° 0 mm 2 mps 759 mmHg 72%
    19:00 -6°C° 0 mm 2 mps 759 mmHg 75%
    20:00 -6°C° 0 mm 2 mps 759 mmHg 75%
    21:00 -7°C° 0 mm 2 mps 759 mmHg 75%
    22:00 -7°C° 0 mm 2 mps 760 mmHg 76%
    23:00 -7°C° 0 mm 2 mps 760 mmHg 76%

    Tomorrow, 25 January, Friday

    Time Temperature Precipitation Wind Pressure Humidity
    00:00 -7°C° 0 mm 2 mps 760 mmHg 77%
    01:00 -7°C° 0 mm 2 mps 760 mmHg 77%
    02:00 -6°C° 0 mm 1 mps 760 mmHg 78%
    03:00 -7°C° 0 mm 1 mps 760 mmHg 78%
    04:00 -7°C° 0 mm 1 mps 759 mmHg 79%
    05:00 -7°C° 0 mm 1 mps 759 mmHg 80%
    06:00 -7°C° 0 mm 1 mps 759 mmHg 80%
    07:00 -7°C° 0 mm 1 mps 759 mmHg 81%
    08:00 -7°C° 0 mm 1 mps 760 mmHg 78%
    09:00 -6°C° 0 mm 0 mps 760 mmHg 76%
    10:00 -6°C° 0 mm 0 mps 760 mmHg 73%
    11:00 -4°C° 0 mm 1 mps 760 mmHg 70%
    12:00 -3°C° 0 mm 1 mps 760 mmHg 66%
    13:00 -3°C° 0 mm 1 mps 760 mmHg 63%
    14:00 -3°C° 0 mm 1 mps 759 mmHg 64%
    15:00 -3°C° 0 mm 1 mps 759 mmHg 65%
    16:00 -3°C° 0 mm 1 mps 759 mmHg 65%
    17:00 -4°C° 0 mm 1 mps 759 mmHg 69%
    18:00 -6°C° 0 mm 2 mps 759 mmHg 72%
    19:00 -6°C° 0 mm 2 mps 759 mmHg 75%
    20:00 -6°C° 0 mm 2 mps 759 mmHg 75%
    21:00 -7°C° 0 mm 3 mps 758 mmHg 76%
    22:00 -7°C° 0 mm 3 mps 758 mmHg 76%
    23:00 -7°C° 0 mm 3 mps 757 mmHg 74%

    Day after tomorrow, 26 January, Saturday

    Time Temperature Precipitation Wind Pressure Humidity
    00:00 -7°C° 0 mm 4 mps 756 mmHg 72%
    01:00 -7°C° 0 mm 4 mps 755 mmHg 70%
    02:00 -7°C° 0.8 mm 5 mps 754 mmHg 78%
    03:00 -7°C° 0.8 mm 5 mps 753 mmHg 86%
    04:00 -7°C° 0.8 mm 5 mps 752 mmHg 94%
    05:00 -5°C° 0.8 mm 5 mps 751 mmHg 94%
    06:00 -4°C° 0.8 mm 5 mps 750 mmHg 95%
    07:00 -2°C° 0.8 mm 4 mps 750 mmHg 96%
    08:00 -2°C° 0.2 mm 4 mps 749 mmHg 96%
    09:00 -2°C° 0.2 mm 4 mps 749 mmHg 96%
    10:00 0°C° 0.2 mm 3 mps 749 mmHg 95%
    11:00 0°C° 0 mm 3 mps 749 mmHg 96%
    12:00 +1°C° 0 mm 2 mps 749 mmHg 97%
    13:00 +2°C° 0 mm 2 mps 748 mmHg 98%
    14:00 +1°C° 0 mm 2 mps 749 mmHg 97%
    15:00 0°C° 0 mm 3 mps 749 mmHg 96%
    16:00 0°C° 0 mm 3 mps 749 mmHg 95%
    17:00 0°C° 0 mm 3 mps 749 mmHg 95%
    18:00 0°C° 0 mm 3 mps 749 mmHg 95%
    19:00 0°C° 0 mm 3 mps 749 mmHg 96%
    20:00 +1°C° 0 mm 2 mps 750 mmHg 96%
    21:00 +1°C° 0 mm 2 mps 750 mmHg 97%
    22:00 +2°C° 0 mm 1 mps 750 mmHg 97%
    23:00 +2°C° 0.2 mm 1 mps 750 mmHg 97%

    27 January, Sunday

    Time Temperature Precipitation Wind Pressure Humidity
    00:00 +2°C° 0.2 mm 1 mps 750 mmHg 98%
    01:00 +2°C° 0.2 mm 1 mps 749 mmHg 98%
    02:00 +1°C° 0.2 mm 2 mps 749 mmHg 98%
    03:00 +1°C° 0.2 mm 2 mps 748 mmHg 98%
    04:00 0°C° 0.2 mm 3 mps 748 mmHg 98%
    05:00 0°C° 0.6 mm 3 mps 747 mmHg 97%
    06:00 -1°C° 0.6 mm 4 mps 747 mmHg 97%
    07:00 -1°C° 0.6 mm 4 mps 746 mmHg 96%
    08:00 -1°C° 0.6 mm 4 mps 746 mmHg 97%
    09:00 -1°C° 0.6 mm 4 mps 745 mmHg 97%
    10:00 -1°C° 0.6 mm 4 mps 745 mmHg 98%
    11:00 0°C° 0.3 mm 4 mps 744 mmHg 98%
    12:00 0°C° 0.3 mm 4 mps 744 mmHg 98%
    13:00 +1°C° 0.3 mm 3 mps 743 mmHg 98%
    14:00 +1°C° 0.1 mm 3 mps 743 mmHg 98%
    15:00 +1°C° 0.1 mm 3 mps 742 mmHg 98%
    16:00 +1°C° 0.1 mm 3 mps 742 mmHg 97%
    17:00 +1°C° 0.1 mm 3 mps 742 mmHg 97%
    18:00 +1°C° 0.1 mm 3 mps 742 mmHg 97%
    19:00 0°C° 0.1 mm 4 mps 741 mmHg 97%
    20:00 0°C° 0.2 mm 4 mps 741 mmHg 96%
    21:00 0°C° 0.2 mm 4 mps 741 mmHg 96%
    22:00 0°C° 0.2 mm 4 mps 741 mmHg 96%
    23:00 0°C° 0 mm 3 mps 741 mmHg 95%

    28 January, Monday

    Time Temperature Precipitation Wind Pressure Humidity
    00:00 0°C° 0 mm 3 mps 741 mmHg 95%
    01:00 -1°C° 0 mm 3 mps 740 mmHg 94%
    02:00 -1°C° 0 mm 3 mps 740 mmHg 94%
    03:00 -1°C° 0 mm 3 mps 740 mmHg 94%
    04:00 -1°C° 0 mm 3 mps 740 mmHg 94%
    05:00 -1°C° 0 mm 3 mps 739 mmHg 94%
    06:00 -1°C° 0 mm 3 mps 739 mmHg 94%
    07:00 0°C° 0 mm 3 mps 739 mmHg 93%
    08:00 0°C° 0 mm 3 mps 740 mmHg 93%
    09:00 0°C° 0 mm 3 mps 740 mmHg 93%
    10:00 -1°C° 0 mm 4 mps 740 mmHg 93%
    11:00 +1°C° 0 mm 3 mps 740 mmHg 93%
    12:00 +1°C° 0 mm 3 mps 740 mmHg 93%
    13:00 +2°C° 0 mm 3 mps 740 mmHg 94%
    14:00 +2°C° 0 mm 3 mps 740 mmHg 94%
    15:00 +2°C° 0 mm 2 mps 740 mmHg 95%
    16:00 +2°C° 0 mm 2 mps 740 mmHg 95%
    17:00 +2°C° 0.1 mm 2 mps 740 mmHg 96%
    18:00 +2°C° 0.1 mm 2 mps 740 mmHg 96%
    19:00 +1°C° 0.1 mm 2 mps 740 mmHg 96%
    20:00 +1°C° 0.1 mm 2 mps 741 mmHg 97%
    21:00 +1°C° 0.1 mm 2 mps 741 mmHg 97%
    22:00 0°C° 0.1 mm 3 mps 742 mmHg 97%
    23:00 -1°C° 0.2 mm 4 mps 742 mmHg 95%

    29 January, Tuesday

    Time Temperature Precipitation Wind Pressure Humidity
    00:00 -1°C° 0.2 mm 5 mps 743 mmHg 92%
    01:00 -2°C° 0.2 mm 6 mps 743 mmHg 90%
    02:00 -1°C° 0 mm 5 mps 744 mmHg 88%
    03:00 -2°C° 0 mm 5 mps 745 mmHg 87%
    04:00 -4°C° 0 mm 5 mps 745 mmHg 86%
    05:00 -4°C° 0 mm 5 mps 746 mmHg 86%
    06:00 -5°C° 0 mm 5 mps 747 mmHg 86%
    07:00 -4°C° 0 mm 4 mps 748 mmHg 86%
    08:00 -5°C° 0 mm 5 mps 748 mmHg 87%
    09:00 -4°C° 0 mm 5 mps 748 mmHg 88%
    10:00 -4°C° 0 mm 5 mps 749 mmHg 89%
    11:00 -2°C° 0 mm 5 mps 749 mmHg 88%
    12:00 -1°C° 0 mm 5 mps 749 mmHg 86%
    13:00 -1°C° 0 mm 5 mps 749 mmHg 85%
    14:00 -1°C° 0 mm 5 mps 749 mmHg 85%
    15:00 -1°C° 0 mm 5 mps 749 mmHg 84%
    16:00 -1°C° 0 mm 5 mps 749 mmHg 84%
    17:00 -1°C° 0 mm 5 mps 749 mmHg 84%
    18:00 -1°C° 0 mm 5 mps 749 mmHg 85%
    19:00 -1°C° 0 mm 5 mps 749 mmHg 85%
    20:00 -2°C° 0 mm 5 mps 749 mmHg 86%
    21:00 -2°C° 0 mm 5 mps 749 mmHg 88%
    22:00 -2°C° 0 mm 5 mps 749 mmHg 89%
    23:00 -2°C° 0.2 mm 5 mps 749 mmHg 90%
    Show more